| time (UTC) | temp F | wind direction | speed MPH | gust MPH | rain 1hr in | rain 24hr in | rain mn in | humidity % | barometer mb |
| 20260505090222 | 46 | 141 | 0.0 | 1.0 | 0.00 | 0.00 | 0.00 | 47 | 969.7 |
| 20260505084622 | 46 | 152 | 1.0 | 2.0 | 0.00 | 0.00 | 0.00 | 47 | 969.5 |
| 20260505083222 | 47 | 182 | 2.0 | 2.0 | 0.00 | 0.00 | 0.00 | 46 | 969.2 |
| 20260505081622 | 47 | 142 | 0.0 | 2.0 | 0.00 | 0.00 | 0.00 | 46 | 968.7 |
| 20260505080222 | 47 | 174 | 1.0 | 3.0 | 0.00 | 0.00 | 0.00 | 46 | 969.2 |
| 20260505074622 | 47 | 181 | 2.0 | 3.0 | 0.00 | 0.00 | 0.00 | 45 | 969.3 |
| 20260505073222 | 48 | 175 | 1.0 | 3.0 | 0.00 | 0.00 | 0.00 | 45 | 968.6 |
| 20260505071622 | 48 | 160 | 0.0 | 2.0 | 0.00 | 0.00 | 0.00 | 45 | 968.9 |
| 20260505070222 | 48 | 172 | 2.0 | 6.0 | 0.00 | 0.00 | 0.00 | 44 | 968.7 |
| 20260505064622 | 49 | 84 | 1.0 | 4.0 | 0.00 | 0.00 | 0.00 | 43 | 969.0 |
| 20260505063222 | 49 | 151 | 3.0 | 11.0 | 0.00 | 0.00 | 0.00 | 43 | 969.1 |
| 20260505061622 | 50 | 206 | 3.0 | 9.0 | 0.00 | 0.00 | 0.00 | 43 | 968.7 |
| 20260505060222 | 50 | 156 | 2.0 | 9.0 | 0.00 | 0.00 | 0.00 | 43 | 968.6 |
| 20260505054622 | 50 | 172 | 6.0 | 8.0 | 0.00 | 0.00 | 0.00 | 42 | 968.5 |
| 20260505053222 | 51 | 100 | 10.0 | 12.0 | 0.00 | 0.00 | 0.00 | 43 | 968.4 |
| 20260505051622 | 51 | 190 | 5.0 | 14.0 | 0.00 | 0.00 | 0.00 | 42 | 968.3 |
| 20260505050222 | 52 | 148 | 5.0 | 10.0 | 0.00 | 0.00 | 0.00 | 42 | 967.8 |
| 20260505041622 | 53 | 180 | 5.0 | 10.0 | 0.00 | 0.00 | 0.00 | 41 | 967.8 |
| 20260505040222 | 53 | 123 | 3.0 | 8.0 | 0.00 | 0.00 | 0.00 | 42 | 967.7 |
| 20260505034622 | 54 | 146 | 4.0 | 14.0 | 0.00 | 0.00 | 0.00 | 41 | 967.7 |
| 20260505033222 | 54 | 129 | 5.0 | 11.0 | 0.00 | 0.00 | 0.00 | 41 | 967.5 |
| 20260505031622 | 55 | 162 | 5.0 | 10.0 | 0.00 | 0.00 | 0.00 | 41 | 967.3 |
| 20260505030222 | 56 | 215 | 4.0 | 14.0 | 0.00 | 0.00 | 0.00 | 41 | 967.0 |
| 20260505024622 | 57 | 164 | 5.0 | 17.0 | 0.00 | 0.00 | 0.00 | 39 | 966.3 |
| 20260505023222 | 58 | 140 | 6.0 | 15.0 | 0.00 | 0.00 | 0.00 | 39 | 966.0 |
| 20260505021622 | 58 | 151 | 6.0 | 18.0 | 0.00 | 0.00 | 0.00 | 38 | 965.2 |
| 20260505020222 | 59 | 125 | 6.0 | 13.0 | 0.00 | 0.00 | 0.00 | 37 | 965.6 |
| 20260505014622 | 59 | 104 | 5.0 | 8.0 | 0.00 | 0.00 | 0.00 | 36 | 965.1 |
| 20260505013222 | 59 | 132 | 5.0 | 9.0 | 0.00 | 0.00 | 0.00 | 35 | 964.6 |
| 20260505011622 | 60 | 98 | 4.0 | 12.0 | 0.00 | 0.00 | 0.00 | 33 | 964.3 |
| 20260505010222 | 61 | 72 | 6.0 | 14.0 | 0.00 | 0.00 | 0.00 | 32 | 964.4 |
| 20260505004622 | 62 | 112 | 4.0 | 12.0 | 0.00 | 0.00 | 0.00 | 33 | 964.2 |
| 20260505003222 | 63 | 103 | 6.0 | 11.0 | 0.00 | 0.00 | 0.00 | 32 | 964.1 |
| 20260505001622 | 64 | 154 | 8.0 | 11.0 | 0.00 | 0.00 | 0.00 | 31 | 964.1 |
| 20260505000222 | 65 | 174 | 3.0 | 11.0 | 0.00 | 0.00 | 0.00 | 29 | 964.0 |
| 20260504234622 | 66 | 74 | 4.0 | 15.0 | 0.00 | 0.00 | 0.00 | 28 | 964.1 |
| 20260504233222 | 68 | 197 | 12.0 | 18.0 | 0.00 | 0.00 | 0.00 | 28 | 963.7 |
| 20260504231622 | 69 | 130 | 7.0 | 13.0 | 0.00 | 0.00 | 0.00 | 30 | 963.4 |
| 20260504230222 | 71 | 153 | 11.0 | 17.0 | 0.00 | 0.00 | 0.00 | 28 | 963.3 |
| 20260504224622 | 72 | 101 | 14.0 | 19.0 | 0.00 | 0.00 | 0.00 | 29 | 962.8 |
| 20260504223222 | 73 | 185 | 4.0 | 13.0 | 0.00 | 0.00 | 0.00 | 28 | 962.5 |
| 20260504221622 | 74 | 149 | 6.0 | 17.0 | 0.00 | 0.00 | 0.00 | 27 | 962.1 |
| 20260504220021 | 75 | 77 | 6.0 | 15.0 | 0.00 | 0.00 | 0.00 | 27 | 962.1 |
| 20260504214421 | 75 | 89 | 8.0 | 15.0 | 0.00 | 0.00 | 0.00 | 27 | 962.0 |
| 20260504212821 | 77 | 148 | 8.0 | 21.0 | 0.00 | 0.00 | 0.00 | 27 | 961.7 |
| 20260504212021 | 77 | 113 | 9.0 | 20.0 | 0.00 | 0.00 | 0.00 | 26 | 961.5 |
| 20260504211221 | 78 | 77 | 9.0 | 15.0 | 0.00 | 0.00 | 0.00 | 26 | 961.6 |
| 20260504210421 | 78 | 84 | 9.0 | 17.0 | 0.00 | 0.00 | 0.00 | 26 | 961.4 |
| 20260504205621 | 78 | 139 | 10.0 | 18.0 | 0.00 | 0.00 | 0.00 | 26 | 961.3 |
| 20260504205221 | 78 | 91 | 5.0 | 21.0 | 0.00 | 0.00 | 0.00 | 27 | 961.3 |
| 20260504204821 | 79 | 174 | 6.0 | 12.0 | 0.00 | 0.00 | 0.00 | 28 | 961.4 |
| 20260504204421 | 79 | 308 | 4.0 | 18.0 | 0.00 | 0.00 | 0.00 | 27 | 961.3 |
| 20260504204021 | 79 | 148 | 7.0 | 18.0 | 0.00 | 0.00 | 0.00 | 29 | 961.3 |
| 20260504203821 | 79 | 355 | 7.0 | 22.0 | 0.00 | 0.00 | 0.00 | 27 | 961.3 |
| 20260504203621 | 79 | 113 | 8.0 | 14.0 | 0.00 | 0.00 | 0.00 | 29 | 961.5 |
| 20260504203421 | 80 | 108 | 7.0 | 12.0 | 0.00 | 0.00 | 0.00 | 28 | 961.2 |
| 20260504203221 | 79 | 119 | 12.0 | 13.0 | 0.00 | 0.00 | 0.00 | 29 | 961.1 |
| 20260504203121 | 79 | 162 | 6.0 | 20.0 | 0.00 | 0.00 | 0.00 | 29 | 961.1 |
| 20260504203034 | 79 | 216 | 9.0 | 20.0 | 0.00 | 0.00 | 0.00 | 29 | 961.1 |
| 20260504202934 | 79 | 165 | 5.0 | 19.0 | 0.00 | 0.00 | 0.00 | 31 | 961.1 |
| 20260504202818 | 79 | 86 | 8.0 | 19.0 | 0.00 | 0.00 | 0.00 | 30 | 961.2 |
| 20260504202718 | 79 | 74 | 11.0 | 17.0 | 0.00 | 0.00 | 0.00 | 31 | 961.0 |
| 20260504202652 | 79 | 93 | 10.0 | 14.0 | 0.00 | 0.00 | 0.00 | 30 | 961.2 |
| 20260504202526 | 79 | 110 | 5.0 | 18.0 | 0.00 | 0.00 | 0.00 | 29 | 961.1 |
| 20260504202426 | 80 | 151 | 10.0 | 18.0 | 0.00 | 0.00 | 0.00 | 29 | 961.1 |
| 20260504202326 | 80 | 155 | 6.0 | 18.0 | 0.00 | 0.00 | 0.00 | 29 | 961.1 |
| 20260504202210 | 80 | 134 | 5.0 | 18.0 | 0.00 | 0.00 | 0.00 | 29 | 961.1 |
| 20260504202119 | 80 | 164 | 8.0 | 13.0 | 0.00 | 0.00 | 0.00 | 30 | 961.1 |
| 20260504201919 | 80 | 165 | 8.0 | 14.0 | 0.00 | 0.00 | 0.00 | 30 | 961.1 |
| 20260504201719 | 80 | 45 | 6.0 | 9.0 | 0.00 | 0.00 | 0.00 | 32 | 961.1 |
| 20260504201519 | 80 | 104 | 6.0 | 12.0 | 0.00 | 0.00 | 0.00 | 31 | 961.0 |
| 20260504201419 | 80 | 131 | 8.0 | 15.0 | 0.00 | 0.00 | 0.00 | 33 | 961.1 |
| 20260504201319 | 80 | 134 | 12.0 | 15.0 | 0.00 | 0.00 | 0.00 | 31 | 961.1 |
| 20260504201219 | 80 | 104 | 8.0 | 12.0 | 0.00 | 0.00 | 0.00 | 30 | 960.9 |
| 20260504201119 | 80 | 111 | 4.0 | 18.0 | 0.00 | 0.00 | 0.00 | 31 | 961.1 |
| 20260504195850 | 80 | 83 | 9.0 | 12.0 | 0.00 | 0.00 | 0.00 | 32 | 961.0 |
| 20260504194450 | 81 | 109 | 9.0 | 14.0 | 0.00 | 0.00 | 0.00 | 30 | 961.0 |
| 20260504192850 | 81 | 93 | 6.0 | 12.0 | 0.00 | 0.00 | 0.00 | 31 | 960.7 |
| 20260504191450 | 81 | 142 | 5.0 | 19.0 | 0.00 | 0.00 | 0.00 | 32 | 960.6 |
| 20260504185850 | 82 | 105 | 7.0 | 15.0 | 0.00 | 0.00 | 0.00 | 28 | 960.6 |
| 20260504184450 | 80 | 91 | 6.0 | 18.0 | 0.00 | 0.00 | 0.00 | 28 | 960.6 |
| 20260504182850 | 81 | 93 | 13.0 | 14.0 | 0.00 | 0.00 | 0.00 | 31 | 960.7 |
| 20260504181450 | 80 | 104 | 11.0 | 19.0 | 0.00 | 0.00 | 0.00 | 31 | 960.7 |
| 20260504175850 | 79 | 37 | 14.0 | 19.0 | 0.00 | 0.00 | 0.00 | 30 | 960.7 |
| 20260504174450 | 78 | 69 | 6.0 | 11.0 | 0.00 | 0.00 | 0.00 | 32 | 960.8 |
| 20260504172850 | 77 | 114 | 10.0 | 18.0 | 0.00 | 0.00 | 0.00 | 31 | 961.0 |
| 20260504171450 | 77 | 82 | 6.0 | 13.0 | 0.00 | 0.00 | 0.00 | 32 | 961.0 |